Location: ????????
(38.4362°N, 22.8767°E)
Time: 14:39:39
(UTC+00:00)

ACS3 Solar Sail - Pass Details

Date: 01 July 2024
Orbit: 993 x 1023 km, 97.4° (Epoch: 18 July)

Event Time Altitude Azimuth Distance (km) Brightness Sun altitude
Exits shadow 19:27:28 21° 144° (SE) 2,085 5.9 -14.8°
Maximum altitude 19:31:38 56° 73° (ENE) 1,169 5.1 -15.3°
Drops below altitude 10° 19:37:41 10° 357° (N) 2,764 7.9 -16.1°
Sets 19:40:12 0° 354° (N) 3,717 8.8 -16.5°
